owner,sensor,date,latitude,longitude,vertical_datum,sea_water_temperature,qcFlag 
DISL,ioos:station:DISL:DISL:1,2019-03-01T03:30:00Z,30.2513,-88.0778,-1.72,19.12,11111222 
DISL,ioos:station:DISL:DISL:1,2019-03-01T04:30:00Z,30.2513,-88.0778,-1.72,18.03,11111222 
DISL,ioos:station:DISL:DISL:1,2019-03-01T05:30:00Z,30.2513,-88.0778,-1.72,18.2,11111222 
DISL,ioos:station:DISL:DISL:1,2019-03-01T06:30:00Z,30.2513,-88.0778,-1.72,18.0,11111222 
DISL,ioos:station:DISL:DISL:1,2019-03-01T07:30:00Z,30.2513,-88.0778,-1.72,17.78,11111222 
DISL,ioos:station:DISL:DISL:1,2019-03-01T08:30:00Z,30.2513,-88.0778,-1.72,17.68,11111222 
DISL,ioos:station:DISL:DISL:1,2019-03-01T09:30:00Z,30.2513,-88.0778,-1.72,17.67,11111222 
DISL,ioos:station:DISL:DISL:1,2019-03-01T10:30:00Z,30.2513,-88.0778,-1.72,17.53,11111222 
DISL,ioos:station:DISL:DISL:1,2019-03-01T11:30:00Z,30.2513,-88.0778,-1.72,17.09,11111222 
DISL,ioos:station:DISL:DISL:1,2019-03-01T12:30:00Z,30.2513,-88.0778,-1.72,16.93,11111222 
DISL,ioos:station:DISL:DISL:1,2019-03-01T13:30:00Z,30.2513,-88.0778,-1.72,16.81,11111222 
DISL,ioos:station:DISL:DISL:1,2019-03-01T14:30:00Z,30.2513,-88.0778,-1.72,16.77,11111222 
DISL,ioos:station:DISL:DISL:1,2019-03-01T15:30:00Z,30.2513,-88.0778,-1.72,16.88,11111222 
DISL,ioos:station:DISL:DISL:1,2019-03-01T16:30:00Z,30.2513,-88.0778,-1.72,17.42,11111222 
DISL,ioos:station:DISL:DISL:1,2019-03-01T17:30:00Z,30.2513,-88.0778,-1.72,17.09,11111222 
DISL,ioos:station:DISL:DISL:1,2019-03-01T18:30:00Z,30.2513,-88.0778,-1.72,17.79,11111222 
DISL,ioos:station:DISL:DISL:1,2019-03-01T20:00:00Z,30.2513,-88.0778,-1.72,18.56,11111222 
DISL,ioos:station:DISL:DISL:1,2019-03-01T21:00:00Z,30.2513,-88.0778,-1.72,18.7,11111222 
DISL,ioos:station:DISL:DISL:1,2019-03-01T22:00:00Z,30.2513,-88.0778,-1.72,17.75,11111222 
DISL,ioos:station:DISL:DISL:1,2019-03-01T22:30:00Z,30.2513,-88.0778,-1.72,18.9,11111222 
DISL,ioos:station:DISL:DISL:1,2019-03-01T23:30:00Z,30.2513,-88.0778,-1.72,19.56,11111222 
DISL,ioos:station:DISL:DISL:1,2019-03-02T00:30:00Z,30.2513,-88.0778,-1.72,19.65,11111222 
DISL,ioos:station:DISL:DISL:1,2019-03-02T01:30:00Z,30.2513,-88.0778,-1.72,17.43,11111222 
DISL,ioos:station:DISL:DISL:1,2019-03-02T02:30:00Z,30.2513,-88.0778,-1.72,16.6,11111222 
DISL,ioos:station:DISL:DISL:1,2019-03-02T03:30:00Z,30.2513,-88.0778,-1.72,16.73,11111222 
DISL,ioos:station:DISL:DISL:1,2019-03-02T04:30:00Z,30.2513,-88.0778,-1.72,16.75,11111222 
DISL,ioos:station:DISL:DISL:1,2019-03-02T05:30:00Z,30.2513,-88.0778,-1.72,17.38,11111222 
DISL,ioos:station:DISL:DISL:1,2019-03-02T06:30:00Z,30.2513,-88.0778,-1.72,17.54,11111222 
DISL,ioos:station:DISL:DISL:1,2019-03-02T07:30:00Z,30.2513,-88.0778,-1.72,17.54,11111222 
DISL,ioos:station:DISL:DISL:1,2019-03-02T08:30:00Z,30.2513,-88.0778,-1.72,17.55,11111222 
DISL,ioos:station:DISL:DISL:1,2019-03-02T09:30:00Z,30.2513,-88.0778,-1.72,17.7,11111222 
DISL,ioos:station:DISL:DISL:1,2019-03-02T10:30:00Z,30.2513,-88.0778,-1.72,17.58,11111222 
DISL,ioos:station:DISL:DISL:1,2019-03-02T11:30:00Z,30.2513,-88.0778,-1.72,17.3,11111222 
DISL,ioos:station:DISL:DISL:1,2019-03-02T12:30:00Z,30.2513,-88.0778,-1.72,17.35,11111222 
DISL,ioos:station:DISL:DISL:1,2019-03-02T13:30:00Z,30.2513,-88.0778,-1.72,17.37,11111222 
DISL,ioos:station:DISL:DISL:1,2019-03-02T14:30:00Z,30.2513,-88.0778,-1.72,17.28,11111222 
DISL,ioos:station:DISL:DISL:1,2019-03-02T15:30:00Z,30.2513,-88.0778,-1.72,17.32,11111222 
DISL,ioos:station:DISL:DISL:1,2019-03-02T16:30:00Z,30.2513,-88.0778,-1.72,17.49,11111222 
DISL,ioos:station:DISL:DISL:1,2019-03-02T17:30:00Z,30.2513,-88.0778,-1.72,17.54,11111222 
DISL,ioos:station:DISL:DISL:1,2019-03-02T18:30:00Z,30.2513,-88.0778,-1.72,17.62,11111222 
DISL,ioos:station:DISL:DISL:1,2019-03-02T19:30:00Z,30.2513,-88.0778,-1.72,18.22,11111222 
DISL,ioos:station:DISL:DISL:1,2019-03-02T20:30:00Z,30.2513,-88.0778,-1.72,18.48,11111222 
DISL,ioos:station:DISL:DISL:1,2019-03-02T21:30:00Z,30.2513,-88.0778,-1.72,18.5,11111222 
DISL,ioos:station:DISL:DISL:1,2019-03-02T22:30:00Z,30.2513,-88.0778,-1.72,18.61,11111222 
DISL,ioos:station:DISL:DISL:1,2019-03-02T23:30:00Z,30.2513,-88.0778,-1.72,18.72,11111222 
DISL,ioos:station:DISL:DISL:1,2019-03-03T00:30:00Z,30.2513,-88.0778,-1.72,18.99,11111222 
DISL,ioos:station:DISL:DISL:1,2019-03-03T01:30:00Z,30.2513,-88.0778,-1.72,19.02,11111222 
DISL,ioos:station:DISL:DISL:1,2019-03-03T02:30:00Z,30.2513,-88.0778,-1.72,19.03,11111222 
DISL,ioos:station:DISL:DISL:1,2019-03-03T03:30:00Z,30.2513,-88.0778,-1.72,19.03,11111222 
DISL,ioos:station:DISL:DISL:1,2019-03-03T04:30:00Z,30.2513,-88.0778,-1.72,18.8,11111222 
DISL,ioos:station:DISL:DISL:1,2019-03-03T05:30:00Z,30.2513,-88.0778,-1.72,18.41,11111222 
DISL,ioos:station:DISL:DISL:1,2019-03-03T06:30:00Z,30.2513,-88.0778,-1.72,17.88,11111222 
DISL,ioos:station:DISL:DISL:1,2019-03-03T07:30:00Z,30.2513,-88.0778,-1.72,17.8,11111222 
DISL,ioos:station:DISL:DISL:1,2019-03-03T08:30:00Z,30.2513,-88.0778,-1.72,17.64,11111222 
DISL,ioos:station:DISL:DISL:1,2019-03-03T09:30:00Z,30.2513,-88.0778,-1.72,17.45,11111222 
DISL,ioos:station:DISL:DISL:1,2019-03-03T10:30:00Z,30.2513,-88.0778,-1.72,17.57,11111222 
DISL,ioos:station:DISL:DISL:1,2019-03-03T11:30:00Z,30.2513,-88.0778,-1.72,17.56,11111222 
DISL,ioos:station:DISL:DISL:1,2019-03-03T12:30:00Z,30.2513,-88.0778,-1.72,17.53,11111222 
DISL,ioos:station:DISL:DISL:1,2019-03-03T13:30:00Z,30.2513,-88.0778,-1.72,17.5,11111222 
DISL,ioos:station:DISL:DISL:1,2019-03-03T14:30:00Z,30.2513,-88.0778,-1.72,17.41,11111222 
DISL,ioos:station:DISL:DISL:1,2019-03-03T15:30:00Z,30.2513,-88.0778,-1.72,17.52,11111222 
DISL,ioos:station:DISL:DISL:1,2019-03-03T16:30:00Z,30.2513,-88.0778,-1.72,17.74,11111222 
DISL,ioos:station:DISL:DISL:1,2019-03-03T17:30:00Z,30.2513,-88.0778,-1.72,17.84,11111222 
DISL,ioos:station:DISL:DISL:1,2019-03-03T18:30:00Z,30.2513,-88.0778,-1.72,17.93,11111222 
DISL,ioos:station:DISL:DISL:1,2019-03-03T19:30:00Z,30.2513,-88.0778,-1.72,18.19,11111222 
DISL,ioos:station:DISL:DISL:1,2019-03-03T20:30:00Z,30.2513,-88.0778,-1.72,19.12,11111222 
DISL,ioos:station:DISL:DISL:1,2019-03-03T21:30:00Z,30.2513,-88.0778,-1.72,19.36,11111222 
DISL,ioos:station:DISL:DISL:1,2019-03-03T22:30:00Z,30.2513,-88.0778,-1.72,19.4,11111222 
DISL,ioos:station:DISL:DISL:1,2019-03-03T23:30:00Z,30.2513,-88.0778,-1.72,19.59,11111222 
DISL,ioos:station:DISL:DISL:1,2019-03-04T00:30:00Z,30.2513,-88.0778,-1.72,18.41,11111222 
DISL,ioos:station:DISL:DISL:1,2019-03-04T01:30:00Z,30.2513,-88.0778,-1.72,18.15,11111222 
DISL,ioos:station:DISL:DISL:1,2019-03-04T02:30:00Z,30.2513,-88.0778,-1.72,18.02,11111222 
DISL,ioos:station:DISL:DISL:1,2019-03-04T03:30:00Z,30.2513,-88.0778,-1.72,17.98,11111222 
DISL,ioos:station:DISL:DISL:1,2019-03-04T04:30:00Z,30.2513,-88.0778,-1.72,17.7,11111222 
DISL,ioos:station:DISL:DISL:1,2019-03-04T05:30:00Z,30.2513,-88.0778,-1.72,17.47,11111222 
DISL,ioos:station:DISL:DISL:1,2019-03-04T06:30:00Z,30.2513,-88.0778,-1.72,17.2,11111222 
DISL,ioos:station:DISL:DISL:1,2019-03-04T07:30:00Z,30.2513,-88.0778,-1.72,16.98,11111222 
DISL,ioos:station:DISL:DISL:1,2019-03-04T08:30:00Z,30.2513,-88.0778,-1.72,17.02,11111222 
DISL,ioos:station:DISL:DISL:1,2019-03-04T09:30:00Z,30.2513,-88.0778,-1.72,16.57,11111222 
DISL,ioos:station:DISL:DISL:1,2019-03-04T10:30:00Z,30.2513,-88.0778,-1.72,16.57,11111222 
DISL,ioos:station:DISL:DISL:1,2019-03-04T11:30:00Z,30.2513,-88.0778,-1.72,16.23,11111222 
DISL,ioos:station:DISL:DISL:1,2019-03-04T12:30:00Z,30.2513,-88.0778,-1.72,15.99,11111222 
DISL,ioos:station:DISL:DISL:1,2019-03-04T13:30:00Z,30.2513,-88.0778,-1.72,15.71,11111222 
DISL,ioos:station:DISL:DISL:1,2019-03-04T14:30:00Z,30.2513,-88.0778,-1.72,15.46,11111222 
DISL,ioos:station:DISL:DISL:1,2019-03-04T15:30:00Z,30.2513,-88.0778,-1.72,15.02,11111222 
DISL,ioos:station:DISL:DISL:1,2019-03-04T16:30:00Z,30.2513,-88.0778,-1.72,15.36,11111222 
DISL,ioos:station:DISL:DISL:1,2019-03-04T17:30:00Z,30.2513,-88.0778,-1.72,14.68,11111222 
DISL,ioos:station:DISL:DISL:1,2019-03-04T18:30:00Z,30.2513,-88.0778,-1.72,15.27,11111222 
DISL,ioos:station:DISL:DISL:1,2019-03-04T19:30:00Z,30.2513,-88.0778,-1.72,15.12,11111222 
DISL,ioos:station:DISL:DISL:1,2019-03-04T20:30:00Z,30.2513,-88.0778,-1.72,14.98,11111222 
DISL,ioos:station:DISL:DISL:1,2019-03-04T21:30:00Z,30.2513,-88.0778,-1.72,15.27,11111222 
DISL,ioos:station:DISL:DISL:1,2019-03-04T22:30:00Z,30.2513,-88.0778,-1.72,15.62,11111222 
DISL,ioos:station:DISL:DISL:1,2019-03-04T23:30:00Z,30.2513,-88.0778,-1.72,15.47,11111222 
DISL,ioos:station:DISL:DISL:1,2019-03-05T00:30:00Z,30.2513,-88.0778,-1.72,15.18,11111222 
DISL,ioos:station:DISL:DISL:1,2019-03-05T01:30:00Z,30.2513,-88.0778,-1.72,15.03,11111222 
DISL,ioos:station:DISL:DISL:1,2019-03-05T02:30:00Z,30.2513,-88.0778,-1.72,14.71,11111222 
DISL,ioos:station:DISL:DISL:1,2019-03-05T03:30:00Z,30.2513,-88.0778,-1.72,14.21,11111222 
DISL,ioos:station:DISL:DISL:1,2019-03-05T04:30:00Z,30.2513,-88.0778,-1.72,13.9,11111222 
DISL,ioos:station:DISL:DISL:1,2019-03-05T05:30:00Z,30.2513,-88.0778,-1.72,13.63,11111222 
DISL,ioos:station:DISL:DISL:1,2019-03-05T06:30:00Z,30.2513,-88.0778,-1.72,13.53,11111222 
DISL,ioos:station:DISL:DISL:1,2019-03-05T07:30:00Z,30.2513,-88.0778,-1.72,13.64,11111222 
DISL,ioos:station:DISL:DISL:1,2019-03-05T08:30:00Z,30.2513,-88.0778,-1.72,13.13,11111222 
DISL,ioos:station:DISL:DISL:1,2019-03-05T09:30:00Z,30.2513,-88.0778,-1.72,13.42,11111222 
DISL,ioos:station:DISL:DISL:1,2019-03-05T10:30:00Z,30.2513,-88.0778,-1.72,13.28,11111222 
DISL,ioos:station:DISL:DISL:1,2019-03-05T11:30:00Z,30.2513,-88.0778,-1.72,13.65,11111222 
DISL,ioos:station:DISL:DISL:1,2019-03-05T12:30:00Z,30.2513,-88.0778,-1.72,13.56,11111222 
DISL,ioos:station:DISL:DISL:1,2019-03-05T13:30:00Z,30.2513,-88.0778,-1.72,13.47,11111222 
DISL,ioos:station:DISL:DISL:1,2019-03-05T14:30:00Z,30.2513,-88.0778,-1.72,13.61,11111222 
DISL,ioos:station:DISL:DISL:1,2019-03-05T15:30:00Z,30.2513,-88.0778,-1.72,13.75,11111222 
DISL,ioos:station:DISL:DISL:1,2019-03-05T16:30:00Z,30.2513,-88.0778,-1.72,13.83,11111222 
DISL,ioos:station:DISL:DISL:1,2019-03-05T17:30:00Z,30.2513,-88.0778,-1.72,12.97,11111222 
DISL,ioos:station:DISL:DISL:1,2019-03-05T18:30:00Z,30.2513,-88.0778,-1.72,13.14,11111222 
DISL,ioos:station:DISL:DISL:1,2019-03-05T19:30:00Z,30.2513,-88.0778,-1.72,13.35,11111222 
DISL,ioos:station:DISL:DISL:1,2019-03-05T20:30:00Z,30.2513,-88.0778,-1.72,13.53,11111222 
DISL,ioos:station:DISL:DISL:1,2019-03-05T22:30:00Z,30.2513,-88.0778,-1.72,13.51,11111222 
DISL,ioos:station:DISL:DISL:1,2019-03-05T23:30:00Z,30.2513,-88.0778,-1.72,13.3,11111222 
DISL,ioos:station:DISL:DISL:1,2019-03-06T00:30:00Z,30.2513,-88.0778,-1.72,13.52,11111222 
DISL,ioos:station:DISL:DISL:1,2019-03-06T01:30:00Z,30.2513,-88.0778,-1.72,12.98,11111222 
DISL,ioos:station:DISL:DISL:1,2019-03-06T02:30:00Z,30.2513,-88.0778,-1.72,13.19,11111222 
DISL,ioos:station:DISL:DISL:1,2019-03-06T03:30:00Z,30.2513,-88.0778,-1.72,12.94,11111222 
DISL,ioos:station:DISL:DISL:1,2019-03-06T04:30:00Z,30.2513,-88.0778,-1.72,12.57,11111222 
DISL,ioos:station:DISL:DISL:1,2019-03-06T05:30:00Z,30.2513,-88.0778,-1.72,12.21,11111222 
DISL,ioos:station:DISL:DISL:1,2019-03-06T06:30:00Z,30.2513,-88.0778,-1.72,11.82,11111222 
DISL,ioos:station:DISL:DISL:1,2019-03-06T07:30:00Z,30.2513,-88.0778,-1.72,11.86,11111222 
DISL,ioos:station:DISL:DISL:1,2019-03-06T08:30:00Z,30.2513,-88.0778,-1.72,12.23,11111222 
DISL,ioos:station:DISL:DISL:1,2019-03-06T09:30:00Z,30.2513,-88.0778,-1.72,12.04,11111222 
DISL,ioos:station:DISL:DISL:1,2019-03-06T10:30:00Z,30.2513,-88.0778,-1.72,11.98,11111222 
DISL,ioos:station:DISL:DISL:1,2019-03-06T11:30:00Z,30.2513,-88.0778,-1.72,12.01,11111222 
DISL,ioos:station:DISL:DISL:1,2019-03-06T12:30:00Z,30.2513,-88.0778,-1.72,12.09,11111222 
DISL,ioos:station:DISL:DISL:1,2019-03-06T13:30:00Z,30.2513,-88.0778,-1.72,11.96,11111222 
DISL,ioos:station:DISL:DISL:1,2019-03-06T14:30:00Z,30.2513,-88.0778,-1.72,11.92,11111222 
DISL,ioos:station:DISL:DISL:1,2019-03-06T15:30:00Z,30.2513,-88.0778,-1.72,11.91,11111222 
DISL,ioos:station:DISL:DISL:1,2019-03-06T16:30:00Z,30.2513,-88.0778,-1.72,12.04,11111222 
DISL,ioos:station:DISL:DISL:1,2019-03-06T17:30:00Z,30.2513,-88.0778,-1.72,12.36,11111222 
DISL,ioos:station:DISL:DISL:1,2019-03-06T18:30:00Z,30.2513,-88.0778,-1.72,12.31,11111222 
DISL,ioos:station:DISL:DISL:1,2019-03-06T19:30:00Z,30.2513,-88.0778,-1.72,12.42,11111222 
DISL,ioos:station:DISL:DISL:1,2019-03-06T20:30:00Z,30.2513,-88.0778,-1.72,12.51,11111222 
DISL,ioos:station:DISL:DISL:1,2019-03-06T21:30:00Z,30.2513,-88.0778,-1.72,13.1,11111222 
DISL,ioos:station:DISL:DISL:1,2019-03-06T22:30:00Z,30.2513,-88.0778,-1.72,13.24,11111222 
DISL,ioos:station:DISL:DISL:1,2019-03-06T23:30:00Z,30.2513,-88.0778,-1.72,13.19,11111222 
DISL,ioos:station:DISL:DISL:1,2019-03-07T00:30:00Z,30.2513,-88.0778,-1.72,12.92,11111222 
DISL,ioos:station:DISL:DISL:1,2019-03-07T01:30:00Z,30.2513,-88.0778,-1.72,12.74,11111222 
DISL,ioos:station:DISL:DISL:1,2019-03-07T02:30:00Z,30.2513,-88.0778,-1.72,12.77,11111222 
DISL,ioos:station:DISL:DISL:1,2019-03-07T03:30:00Z,30.2513,-88.0778,-1.72,12.64,11111222 
DISL,ioos:station:DISL:DISL:1,2019-03-07T04:30:00Z,30.2513,-88.0778,-1.72,12.45,11111222 
DISL,ioos:station:DISL:DISL:1,2019-03-07T05:30:00Z,30.2513,-88.0778,-1.72,12.18,11111222 
DISL,ioos:station:DISL:DISL:1,2019-03-07T06:30:00Z,30.2513,-88.0778,-1.72,11.9,11111222 
DISL,ioos:station:DISL:DISL:1,2019-03-07T07:30:00Z,30.2513,-88.0778,-1.72,11.72,11111222 
DISL,ioos:station:DISL:DISL:1,2019-03-07T08:30:00Z,30.2513,-88.0778,-1.72,11.61,11111222 
DISL,ioos:station:DISL:DISL:1,2019-03-07T09:30:00Z,30.2513,-88.0778,-1.72,11.98,11111222 
DISL,ioos:station:DISL:DISL:1,2019-03-07T10:30:00Z,30.2513,-88.0778,-1.72,11.75,11111222 
DISL,ioos:station:DISL:DISL:1,2019-03-07T11:30:00Z,30.2513,-88.0778,-1.72,11.75,11111222 
DISL,ioos:station:DISL:DISL:1,2019-03-07T12:30:00Z,30.2513,-88.0778,-1.72,11.98,11111222 
DISL,ioos:station:DISL:DISL:1,2019-03-07T13:30:00Z,30.2513,-88.0778,-1.72,11.99,11111222 
DISL,ioos:station:DISL:DISL:1,2019-03-07T14:30:00Z,30.2513,-88.0778,-1.72,11.94,11111222 
DISL,ioos:station:DISL:DISL:1,2019-03-07T15:30:00Z,30.2513,-88.0778,-1.72,12.07,11111222 
DISL,ioos:station:DISL:DISL:1,2019-03-07T16:30:00Z,30.2513,-88.0778,-1.72,12.33,11111222 
DISL,ioos:station:DISL:DISL:1,2019-03-07T17:30:00Z,30.2513,-88.0778,-1.72,12.73,11111222 
DISL,ioos:station:DISL:DISL:1,2019-03-07T18:30:00Z,30.2513,-88.0778,-1.72,13.18,11111222 
DISL,ioos:station:DISL:DISL:1,2019-03-07T19:30:00Z,30.2513,-88.0778,-1.72,13.31,11111222 
DISL,ioos:station:DISL:DISL:1,2019-03-07T20:30:00Z,30.2513,-88.0778,-1.72,13.53,11111222 
DISL,ioos:station:DISL:DISL:1,2019-03-07T21:30:00Z,30.2513,-88.0778,-1.72,14.13,11111222 
DISL,ioos:station:DISL:DISL:1,2019-03-07T22:30:00Z,30.2513,-88.0778,-1.72,13.8,11111222 
DISL,ioos:station:DISL:DISL:1,2019-03-07T23:30:00Z,30.2513,-88.0778,-1.72,13.5,11111222 
DISL,ioos:station:DISL:DISL:1,2019-03-08T00:30:00Z,30.2513,-88.0778,-1.72,13.41,11111222 
DISL,ioos:station:DISL:DISL:1,2019-03-08T01:30:00Z,30.2513,-88.0778,-1.72,13.3,11111222 
DISL,ioos:station:DISL:DISL:1,2019-03-08T02:30:00Z,30.2513,-88.0778,-1.72,13.0,11111222 
DISL,ioos:station:DISL:DISL:1,2019-03-08T03:30:00Z,30.2513,-88.0778,-1.72,12.87,11111222 
DISL,ioos:station:DISL:DISL:1,2019-03-08T04:30:00Z,30.2513,-88.0778,-1.72,12.9,11111222 
DISL,ioos:station:DISL:DISL:1,2019-03-08T05:30:00Z,30.2513,-88.0778,-1.72,12.91,11111222 
DISL,ioos:station:DISL:DISL:1,2019-03-08T06:30:00Z,30.2513,-88.0778,-1.72,12.98,11111222 
DISL,ioos:station:DISL:DISL:1,2019-03-08T07:30:00Z,30.2513,-88.0778,-1.72,12.89,11111222 
DISL,ioos:station:DISL:DISL:1,2019-03-08T08:30:00Z,30.2513,-88.0778,-1.72,13.06,11111222 
DISL,ioos:station:DISL:DISL:1,2019-03-08T09:30:00Z,30.2513,-88.0778,-1.72,12.98,11111222 
DISL,ioos:station:DISL:DISL:1,2019-03-08T10:30:00Z,30.2513,-88.0778,-1.72,12.93,11111222 
DISL,ioos:station:DISL:DISL:1,2019-03-08T11:30:00Z,30.2513,-88.0778,-1.72,12.61,11111222 
DISL,ioos:station:DISL:DISL:1,2019-03-08T12:30:00Z,30.2513,-88.0778,-1.72,12.59,11111222 
DISL,ioos:station:DISL:DISL:1,2019-03-08T13:30:00Z,30.2513,-88.0778,-1.72,12.62,11111222 
DISL,ioos:station:DISL:DISL:1,2019-03-08T17:00:00Z,30.2513,-88.0778,-1.72,12.74,11111222 
DISL,ioos:station:DISL:DISL:1,2019-03-08T17:30:00Z,30.2513,-88.0778,-1.72,12.82,11111222 
DISL,ioos:station:DISL:DISL:1,2019-03-08T18:30:00Z,30.2513,-88.0778,-1.72,13.54,11111222 
DISL,ioos:station:DISL:DISL:1,2019-03-08T19:30:00Z,30.2513,-88.0778,-1.72,14.07,11111222 
DISL,ioos:station:DISL:DISL:1,2019-03-08T20:30:00Z,30.2513,-88.0778,-1.72,14.65,11111222 
DISL,ioos:station:DISL:DISL:1,2019-03-08T21:30:00Z,30.2513,-88.0778,-1.72,14.39,11111222 
DISL,ioos:station:DISL:DISL:1,2019-03-08T22:30:00Z,30.2513,-88.0778,-1.72,13.67,11111222 
DISL,ioos:station:DISL:DISL:1,2019-03-08T23:30:00Z,30.2513,-88.0778,-1.72,13.44,11111222 
DISL,ioos:station:DISL:DISL:1,2019-03-09T00:30:00Z,30.2513,-88.0778,-1.72,13.26,11111222 
DISL,ioos:station:DISL:DISL:1,2019-03-09T01:30:00Z,30.2513,-88.0778,-1.72,13.27,11111222 
DISL,ioos:station:DISL:DISL:1,2019-03-09T02:30:00Z,30.2513,-88.0778,-1.72,13.34,11111222 
DISL,ioos:station:DISL:DISL:1,2019-03-09T03:30:00Z,30.2513,-88.0778,-1.72,13.45,11111222 
DISL,ioos:station:DISL:DISL:1,2019-03-09T04:30:00Z,30.2513,-88.0778,-1.72,13.59,11111222 
DISL,ioos:station:DISL:DISL:1,2019-03-09T05:30:00Z,30.2513,-88.0778,-1.72,13.55,11111222 
DISL,ioos:station:DISL:DISL:1,2019-03-09T06:30:00Z,30.2513,-88.0778,-1.72,13.64,11111222 
DISL,ioos:station:DISL:DISL:1,2019-03-09T07:30:00Z,30.2513,-88.0778,-1.72,13.68,11111222 
DISL,ioos:station:DISL:DISL:1,2019-03-09T08:30:00Z,30.2513,-88.0778,-1.72,13.67,11111222 
DISL,ioos:station:DISL:DISL:1,2019-03-09T09:30:00Z,30.2513,-88.0778,-1.72,13.75,11111222 
DISL,ioos:station:DISL:DISL:1,2019-03-09T10:30:00Z,30.2513,-88.0778,-1.72,13.69,11111222 
DISL,ioos:station:DISL:DISL:1,2019-03-09T11:30:00Z,30.2513,-88.0778,-1.72,14.06,11111222 
DISL,ioos:station:DISL:DISL:1,2019-03-09T12:30:00Z,30.2513,-88.0778,-1.72,14.25,11111222 
DISL,ioos:station:DISL:DISL:1,2019-03-09T13:30:00Z,30.2513,-88.0778,-1.72,14.38,11111222 
DISL,ioos:station:DISL:DISL:1,2019-03-09T14:30:00Z,30.2513,-88.0778,-1.72,14.33,11111222 
DISL,ioos:station:DISL:DISL:1,2019-03-09T15:30:00Z,30.2513,-88.0778,-1.72,14.27,11111222 
DISL,ioos:station:DISL:DISL:1,2019-03-09T16:30:00Z,30.2513,-88.0778,-1.72,14.43,11111222 
DISL,ioos:station:DISL:DISL:1,2019-03-09T17:30:00Z,30.2513,-88.0778,-1.72,14.36,11111222 
DISL,ioos:station:DISL:DISL:1,2019-03-09T18:30:00Z,30.2513,-88.0778,-1.72,14.61,11111222 
DISL,ioos:station:DISL:DISL:1,2019-03-09T19:30:00Z,30.2513,-88.0778,-1.72,14.99,11111222 
DISL,ioos:station:DISL:DISL:1,2019-03-09T20:30:00Z,30.2513,-88.0778,-1.72,15.3,11111222 
DISL,ioos:station:DISL:DISL:1,2019-03-09T21:30:00Z,30.2513,-88.0778,-1.72,15.12,11111222 
DISL,ioos:station:DISL:DISL:1,2019-03-09T22:30:00Z,30.2513,-88.0778,-1.72,15.37,11111222 
DISL,ioos:station:DISL:DISL:1,2019-03-09T23:30:00Z,30.2513,-88.0778,-1.72,15.07,11111222 
DISL,ioos:station:DISL:DISL:1,2019-03-10T00:30:00Z,30.2513,-88.0778,-1.72,15.05,11111222 
DISL,ioos:station:DISL:DISL:1,2019-03-10T01:30:00Z,30.2513,-88.0778,-1.72,15.14,11111222 
DISL,ioos:station:DISL:DISL:1,2019-03-10T02:30:00Z,30.2513,-88.0778,-1.72,15.13,11111222 
DISL,ioos:station:DISL:DISL:1,2019-03-10T03:30:00Z,30.2513,-88.0778,-1.72,15.13,11111222 
DISL,ioos:station:DISL:DISL:1,2019-03-10T04:30:00Z,30.2513,-88.0778,-1.72,15.11,11111222 
DISL,ioos:station:DISL:DISL:1,2019-03-10T05:30:00Z,30.2513,-88.0778,-1.72,15.12,11111222 
DISL,ioos:station:DISL:DISL:1,2019-03-10T06:30:00Z,30.2513,-88.0778,-1.72,15.11,11111222 
DISL,ioos:station:DISL:DISL:1,2019-03-10T07:30:00Z,30.2513,-88.0778,-1.72,15.09,11111222 
DISL,ioos:station:DISL:DISL:1,2019-03-10T08:30:00Z,30.2513,-88.0778,-1.72,15.14,11111222 
DISL,ioos:station:DISL:DISL:1,2019-03-10T09:30:00Z,30.2513,-88.0778,-1.72,15.1,11111222 
DISL,ioos:station:DISL:DISL:1,2019-03-10T10:30:00Z,30.2513,-88.0778,-1.72,15.08,11111222 
DISL,ioos:station:DISL:DISL:1,2019-03-10T11:30:00Z,30.2513,-88.0778,-1.72,15.06,11111222 
DISL,ioos:station:DISL:DISL:1,2019-03-10T12:30:00Z,30.2513,-88.0778,-1.72,15.19,11111222 
DISL,ioos:station:DISL:DISL:1,2019-03-10T13:30:00Z,30.2513,-88.0778,-1.72,15.2,11111222 
DISL,ioos:station:DISL:DISL:1,2019-03-10T14:30:00Z,30.2513,-88.0778,-1.72,15.19,11111222 
DISL,ioos:station:DISL:DISL:1,2019-03-10T16:00:00Z,30.2513,-88.0778,-1.72,15.3,11111222 
DISL,ioos:station:DISL:DISL:1,2019-03-10T17:00:00Z,30.2513,-88.0778,-1.72,15.56,11111222 
DISL,ioos:station:DISL:DISL:1,2019-03-10T18:00:00Z,30.2513,-88.0778,-1.72,15.83,11111222 
DISL,ioos:station:DISL:DISL:1,2019-03-10T19:00:00Z,30.2513,-88.0778,-1.72,16.1,11111222 
DISL,ioos:station:DISL:DISL:1,2019-03-10T20:00:00Z,30.2513,-88.0778,-1.72,16.48,11111222 
DISL,ioos:station:DISL:DISL:1,2019-03-10T21:00:00Z,30.2513,-88.0778,-1.72,16.68,11111222 
DISL,ioos:station:DISL:DISL:1,2019-03-10T22:00:00Z,30.2513,-88.0778,-1.72,16.62,11111222 
DISL,ioos:station:DISL:DISL:1,2019-03-11T04:30:00Z,30.2513,-88.0778,-1.72,16.06,11111222 
DISL,ioos:station:DISL:DISL:1,2019-03-11T05:30:00Z,30.2513,-88.0778,-1.72,16.23,11111222 
DISL,ioos:station:DISL:DISL:1,2019-03-11T06:30:00Z,30.2513,-88.0778,-1.72,16.57,11111222 
DISL,ioos:station:DISL:DISL:1,2019-03-11T07:30:00Z,30.2513,-88.0778,-1.72,16.35,11111222 
DISL,ioos:station:DISL:DISL:1,2019-03-11T08:30:00Z,30.2513,-88.0778,-1.72,16.73,11111222 
DISL,ioos:station:DISL:DISL:1,2019-03-11T09:30:00Z,30.2513,-88.0778,-1.72,16.91,11111222 
DISL,ioos:station:DISL:DISL:1,2019-03-11T10:30:00Z,30.2513,-88.0778,-1.72,17.14,11111222 
DISL,ioos:station:DISL:DISL:1,2019-03-11T11:30:00Z,30.2513,-88.0778,-1.72,17.29,11111222 
DISL,ioos:station:DISL:DISL:1,2019-03-11T12:30:00Z,30.2513,-88.0778,-1.72,17.28,11111222 
DISL,ioos:station:DISL:DISL:1,2019-03-11T13:30:00Z,30.2513,-88.0778,-1.72,17.03,11111222 
DISL,ioos:station:DISL:DISL:1,2019-03-11T14:30:00Z,30.2513,-88.0778,-1.72,16.5,11111222 
DISL,ioos:station:DISL:DISL:1,2019-03-11T15:30:00Z,30.2513,-88.0778,-1.72,15.98,11111222 
DISL,ioos:station:DISL:DISL:1,2019-03-11T16:30:00Z,30.2513,-88.0778,-1.72,15.85,11111222 
DISL,ioos:station:DISL:DISL:1,2019-03-11T17:30:00Z,30.2513,-88.0778,-1.72,16.83,11111222 
DISL,ioos:station:DISL:DISL:1,2019-03-11T19:00:00Z,30.2513,-88.0778,-1.72,17.83,11111222 
DISL,ioos:station:DISL:DISL:1,2019-03-11T19:30:00Z,30.2513,-88.0778,-1.72,17.92,11111222 
DISL,ioos:station:DISL:DISL:1,2019-03-11T20:30:00Z,30.2513,-88.0778,-1.72,18.23,11111222 
DISL,ioos:station:DISL:DISL:1,2019-03-11T21:30:00Z,30.2513,-88.0778,-1.72,18.44,11111222 
DISL,ioos:station:DISL:DISL:1,2019-03-11T22:30:00Z,30.2513,-88.0778,-1.72,17.75,11111222 
DISL,ioos:station:DISL:DISL:1,2019-03-11T23:30:00Z,30.2513,-88.0778,-1.72,16.88,11111222 
DISL,ioos:station:DISL:DISL:1,2019-03-12T00:30:00Z,30.2513,-88.0778,-1.72,16.7,11111222 
DISL,ioos:station:DISL:DISL:1,2019-03-12T01:30:00Z,30.2513,-88.0778,-1.72,16.29,11111222 
DISL,ioos:station:DISL:DISL:1,2019-03-12T02:30:00Z,30.2513,-88.0778,-1.72,16.29,11111222 
DISL,ioos:station:DISL:DISL:1,2019-03-12T03:30:00Z,30.2513,-88.0778,-1.72,16.43,11111222 
DISL,ioos:station:DISL:DISL:1,2019-03-12T04:30:00Z,30.2513,-88.0778,-1.72,16.58,11111222 
DISL,ioos:station:DISL:DISL:1,2019-03-12T05:30:00Z,30.2513,-88.0778,-1.72,16.59,11111222 
DISL,ioos:station:DISL:DISL:1,2019-03-12T06:30:00Z,30.2513,-88.0778,-1.72,16.27,11111222 
DISL,ioos:station:DISL:DISL:1,2019-03-12T08:00:00Z,30.2513,-88.0778,-1.72,16.41,11111222 
DISL,ioos:station:DISL:DISL:1,2019-03-12T08:30:00Z,30.2513,-88.0778,-1.72,16.43,11111222 
DISL,ioos:station:DISL:DISL:1,2019-03-12T09:30:00Z,30.2513,-88.0778,-1.72,16.42,11111222 
DISL,ioos:station:DISL:DISL:1,2019-03-12T10:30:00Z,30.2513,-88.0778,-1.72,16.1,11111222 
DISL,ioos:station:DISL:DISL:1,2019-03-12T11:30:00Z,30.2513,-88.0778,-1.72,16.14,11111222 
DISL,ioos:station:DISL:DISL:1,2019-03-12T12:30:00Z,30.2513,-88.0778,-1.72,16.2,11111222 
DISL,ioos:station:DISL:DISL:1,2019-03-12T13:30:00Z,30.2513,-88.0778,-1.72,16.19,11111222 